Location: Pasadena-CA
(34.1440°N, 118.1100°W)
Time: 06:03:37
(UTC-07:00)

BlueWalker 3 - Pass Details

Date: 03 March 2024
Orbit: 485 x 495 km, 53.2° (Epoch: 25 April)

Event Time Altitude Azimuth Distance (km) Brightness Sun altitude
Rises 18:39:02 0° 329° (NNW) 2,556 6.0 -10.7°
Reaches altitude 10° 18:41:54 10° 352° (N) 1,670 4.7 -11.3°
Maximum altitude 18:44:17 16° 32° (NNE) 1,341 3.8 -11.8°
Enters shadow 18:45:33 14° 55° (NE) 1,440 3.8 -12.1°
